Location: *
(34.8620°S, 39.3380°E)
Time: 02:56:27
(UTC+00:00)

Cosmos 1300 - Pass Details

Date: 05 December 2021
Orbit: 509 x 511 km, 82.5° (Epoch: 22 January)

Event Time Altitude Azimuth Distance (km) Brightness Sun altitude
Exits shadow 21:25:46 15° 147° (SSE) 1,462 5.6 -32.6°
Drops below altitude 10° 21:26:36 10° 153° (SSE) 1,759 6.1 -32.6°
Sets 21:28:52 0° 162° (SSE) 2,654 7.3 -32.5°
